Back to catalog

DMSP 5D-2 F14 DEB

AliveSSO
NORAD 62938·DEBRIS·🇺🇸 United States

Launched Apr 4, 1997 from Vandenberg Space Force Base

Loading…

Next Passes (next 24 hours)

TLE

FreshSource: Space-Track

Epoch: Sep 13, 2026, 16:54 UTC

1 62938U 97012J   26256.70464892  .00001706  00000-0  82741-3 0  9997
2 62938  98.8274 309.8117 0001238 135.5418 224.5857 14.19714819 89665

Track DMSP 5D-2 F14 DEB in real time with AllMySat

Download on the App Store